Location: Newark
(35.0317°N, 117.3481°W)
Time: 19:15:27
(UTC+00:00)

Envisat - Visible Passes

Search period start: 23 October 2019 00:00
Search period end: 02 November 2019 00:00
Orbit: 764 x 766 km, 98.1° (Epoch: 23 October)

Date Brightness Start Highest point End Pass type
(mag) Time Alt. Az. Time Alt. Az. Time Alt. Az.
23 Oct 3.5 02:14:57 10° S 02:19:58 62° W 02:25:01 10° NNW visible
24 Oct 3.1 01:38:19 10° SSE 01:43:16 55° ENE 01:48:14 10° N visible
24 Oct 6.0 03:20:00 10° WSW 03:22:34 14° W 03:25:10 10° WNW visible
25 Oct 4.7 02:41:00 10° SSW 02:45:33 33° W 02:50:07 10° NNW visible
26 Oct 3.1 02:03:38 10° S 02:08:42 81° WSW 02:13:48 10° NNW visible
27 Oct 3.3 01:27:17 10° SE 01:32:03 43° ENE 01:36:49 10° N visible
27 Oct 5.7 03:07:46 10° SW 03:11:13 18° W 03:14:40 10° NW visible
28 Oct 4.2 02:29:26 10° S 02:34:15 43° W 02:39:05 10° NNW visible
29 Oct 2.9 01:52:23 10° SSE 01:57:27 79° ENE 02:02:33 10° N visible
30 Oct 3.6 01:16:20 10° SE 01:20:51 33° ENE 01:25:23 10° N visible
30 Oct 5.3 02:55:51 10° SSW 02:59:51 23° W 03:03:54 10° NW visible
30 Oct 6.2 13:29:45 10° ENE 13:32:34 15° E 13:35:22 10° SE visible
31 Oct 3.7 02:17:59 10° S 02:22:57 56° W 02:27:57 10° NNW visible
01 Nov 3.0 01:41:14 10° SSE 01:46:13 61° ENE 01:51:14 10° N visible
01 Nov 6.1 03:23:29 10° WSW 03:25:35 12° W 03:27:41 10° WNW visible
